GEFSNE_prec_meanprecacc_216.txt.gz
Total_Precipitation_Accumulation
0.49 0.49 0.51 0.47 0.46 0.48 0.54 0.69 0.90 0.74 0.36 0.25 0.30 0.31 0.32 0.36 0.41 0.43 0.41 0.45 0.54 0.59 0.65 0.71 0.79 0.87 1.00 1.25 1.76 2.45 3.02 3.40 3.35 3.03 2.74 2.70 2.99 3.38
0.59 0.59 0.57 0.56 0.57 0.56 0.58 0.62 0.77 0.94 0.69 0.29 0.31 0.37 0.41 0.42 0.46 0.46 0.45 0.51 0.54 0.61 0.67 0.70 0.76 0.83 0.94 1.10 1.30 1.76 2.40 2.90 3.27 3.42 3.34 3.20 3.21 3.46
0.66 0.68 0.68 0.68 0.70 0.69 0.70 0.71 0.76 0.92 0.94 0.42 0.28 0.35 0.47 0.51 0.51 0.48 0.46 0.47 0.47 0.55 0.65 0.69 0.75 0.81 0.86 0.98 1.14 1.39 1.88 2.38 2.82 3.29 3.61 3.61 3.48 3.43
0.70 0.74 0.76 0.76 0.79 0.80 0.83 0.82 0.80 0.84 0.96 0.69 0.39 0.38 0.46 0.52 0.57 0.56 0.49 0.46 0.45 0.50 0.61 0.70 0.74 0.79 0.82 0.89 1.00 1.18 1.47 1.95 2.33 2.66 3.11 3.36 3.40 3.52
0.65 0.72 0.76 0.83 0.87 0.85 0.87 0.87 0.82 0.76 0.79 0.79 0.54 0.43 0.47 0.52 0.57 0.61 0.59 0.56 0.51 0.50 0.54 0.65 0.74 0.79 0.85 0.90 0.96 1.03 1.13 1.36 1.78 2.26 2.73 3.11 3.18 3.19
0.63 0.68 0.75 0.86 0.95 1.01 1.07 0.98 0.90 0.94 0.94 0.93 0.76 0.60 0.56 0.57 0.70 0.74 0.71 0.65 0.62 0.55 0.55 0.57 0.67 0.76 0.79 0.79 0.81 0.88 0.98 1.20 1.54 1.97 2.34 2.74 2.98 2.97
0.68 0.68 0.72 0.88 1.09 1.29 1.41 1.34 1.28 1.31 1.25 1.22 1.07 0.87 0.74 0.75 0.81 0.79 0.83 0.73 0.71 0.68 0.63 0.54 0.53 0.54 0.59 0.68 0.74 0.78 0.87 1.01 1.20 1.52 1.95 2.32 2.67 2.91
0.75 0.69 0.66 0.75 0.86 1.04 1.26 1.33 1.42 1.52 1.56 1.50 1.38 1.19 0.91 0.81 0.85 0.99 1.10 1.11 0.97 0.69 0.65 0.61 0.59 0.62 0.57 0.58 0.67 0.71 0.76 0.87 1.05 1.26 1.53 1.85 2.18 2.60
0.67 0.62 0.62 0.60 0.66 0.64 0.76 0.86 0.96 1.14 1.37 1.53 1.60 1.31 1.04 0.92 1.07 1.28 1.32 1.29 1.07 0.86 0.89 0.93 0.75 0.71 0.64 0.67 0.76 0.72 0.78 0.88 0.98 1.10 1.30 1.56 1.81 2.13
0.59 0.61 0.62 0.60 0.59 0.66 0.73 0.76 0.72 0.75 0.97 1.21 1.36 1.22 1.12 1.12 1.30 1.55 1.69 1.75 1.43 1.09 1.07 1.25 0.96 0.80 0.71 0.69 0.78 0.77 0.78 0.84 0.94 1.05 1.17 1.32 1.54 1.81
0.59 0.71 0.76 0.68 0.71 0.85 0.96 0.94 0.77 0.67 0.74 1.02 1.27 1.31 1.35 1.53 1.74 2.07 2.34 2.41 2.11 1.51 1.26 1.38 1.20 0.99 0.88 0.80 0.82 0.89 0.88 0.86 0.89 1.00 1.13 1.23 1.36 1.59
0.62 0.74 0.98 0.95 0.93 0.98 1.03 1.04 0.99 0.76 0.68 0.73 0.81 0.91 0.96 1.04 1.38 1.73 1.97 2.19 2.16 1.92 1.47 1.42 1.40 1.34 1.36 1.02 0.82 0.76 0.80 0.92 0.96 0.99 1.09 1.19 1.31 1.36
0.73 0.80 0.94 1.00 0.99 1.00 1.05 1.03 1.06 1.00 0.96 0.93 0.87 0.82 0.84 0.95 1.11 1.36 1.60 1.84 2.04 1.93 1.53 1.59 1.71 1.60 1.54 1.25 0.94 0.82 0.73 0.72 0.77 0.90 1.04 1.18 1.32 1.39
0.80 0.74 0.82 0.93 0.97 1.00 0.97 0.99 1.05 1.07 1.02 0.98 0.89 0.82 0.81 0.86 0.94 1.09 1.34 1.50 1.62 1.66 1.51 1.64 1.90 1.74 1.63 1.36 1.05 0.95 0.87 0.80 0.74 0.75 0.84 1.13 1.31 1.41
0.87 1.01 0.97 0.93 0.89 0.84 0.83 0.89 0.90 0.86 0.89 0.87 0.76 0.66 0.63 0.69 0.80 0.96 1.14 1.32 1.44 1.47 1.49 1.50 1.62 1.67 1.74 1.58 1.12 0.95 1.00 1.00 0.89 0.82 0.84 0.92 1.05 1.19
0.86 0.95 0.95 0.84 0.74 0.69 0.71 0.73 0.73 0.77 0.84 0.84 0.73 0.63 0.59 0.64 0.76 0.88 1.05 1.20 1.41 1.43 1.38 1.41 1.48 1.71 1.88 1.57 1.30 1.09 0.99 1.11 1.05 0.93 0.89 0.89 0.93 0.97
1.04 1.04 0.95 0.81 0.73 0.64 0.61 0.58 0.59 0.68 0.78 0.77 0.76 0.76 0.72 0.73 0.75 0.80 0.98 1.13 1.31 1.29 1.29 1.40 1.52 1.67 1.83 1.81 1.70 1.33 1.10 1.06 1.07 1.06 1.02 1.03 1.02 0.99
1.04 0.99 0.83 0.72 0.66 0.62 0.61 0.60 0.57 0.59 0.62 0.68 0.73 0.76 0.78 0.79 0.78 0.79 0.93 1.08 1.15 1.12 1.17 1.29 1.57 1.93 2.17 2.15 1.83 1.51 1.25 1.16 1.21 1.27 1.17 1.11 1.08 0.99
0.86 0.75 0.67 0.65 0.62 0.59 0.58 0.58 0.56 0.53 0.58 0.67 0.73 0.75 0.78 0.80 0.80 0.80 0.84 0.94 1.01 1.03 1.10 1.22 1.49 1.89 2.09 1.98 1.86 1.59 1.36 1.22 1.30 1.48 1.40 1.14 1.01 0.92
0.65 0.64 0.62 0.60 0.58 0.57 0.57 0.57 0.56 0.55 0.59 0.64 0.65 0.66 0.71 0.78 0.78 0.73 0.75 0.86 0.94 1.01 1.10 1.22 1.42 1.65 1.84 1.63 1.56 1.62 1.51 1.38 1.38 1.54 1.49 1.24 1.11 1.15
0.58 0.58 0.57 0.59 0.59 0.56 0.54 0.54 0.55 0.56 0.55 0.57 0.57 0.58 0.61 0.72 0.73 0.65 0.68 0.79 0.98 1.09 1.12 1.13 1.25 1.48 1.73 1.83 1.81 1.69 1.67 1.63 1.49 1.51 1.48 1.43 1.38 1.36
0.57 0.59 0.56 0.56 0.60 0.59 0.58 0.56 0.57 0.55 0.53 0.54 0.54 0.55 0.59 0.67 0.70 0.66 0.70 0.80 0.89 0.96 1.01 1.06 1.20 1.53 1.94 2.06 1.88 1.67 1.67 1.76 1.84 1.76 1.63 1.47 1.47 1.44
0.62 0.60 0.55 0.52 0.55 0.58 0.60 0.59 0.57 0.54 0.52 0.56 0.58 0.58 0.61 0.67 0.67 0.70 0.74 0.79 0.86 0.91 0.98 1.12 1.30 1.56 1.80 1.81 1.78 1.69 1.58 1.59 1.70 1.82 1.99 1.73 1.33 1.11

GEFSNE_prec_meanprecacc_222.txt.gz
Total_Precipitation_Accumulation
0.55 0.53 0.54 0.49 0.48 0.50 0.56 0.72 0.93 0.77 0.38 0.26 0.31 0.31 0.33 0.37 0.42 0.45 0.46 0.54 0.63 0.68 0.73 0.80 0.88 0.97 1.11 1.37 1.88 2.58 3.15 3.54 3.49 3.15 2.84 2.78 3.07 3.47
0.67 0.66 0.63 0.61 0.60 0.59 0.61 0.65 0.80 0.98 0.72 0.30 0.32 0.38 0.42 0.44 0.48 0.48 0.48 0.56 0.62 0.72 0.79 0.82 0.90 0.99 1.08 1.21 1.41 1.88 2.52 3.02 3.37 3.50 3.41 3.27 3.28 3.54
0.73 0.75 0.74 0.73 0.75 0.74 0.74 0.75 0.78 0.95 0.97 0.44 0.29 0.36 0.49 0.53 0.53 0.50 0.50 0.53 0.55 0.64 0.76 0.82 0.90 0.98 1.02 1.12 1.25 1.49 1.97 2.47 2.91 3.38 3.69 3.69 3.55 3.50
0.75 0.80 0.80 0.80 0.84 0.84 0.88 0.86 0.82 0.86 0.98 0.71 0.40 0.39 0.47 0.54 0.60 0.60 0.54 0.54 0.54 0.59 0.70 0.81 0.87 0.91 0.93 0.99 1.10 1.27 1.55 2.02 2.40 2.74 3.18 3.42 3.46 3.58
0.69 0.76 0.80 0.86 0.90 0.88 0.90 0.90 0.84 0.78 0.81 0.81 0.56 0.44 0.49 0.54 0.60 0.64 0.63 0.63 0.60 0.62 0.65 0.73 0.83 0.88 0.93 0.98 1.03 1.10 1.20 1.43 1.84 2.34 2.80 3.17 3.24 3.26
0.68 0.72 0.78 0.89 0.97 1.03 1.10 1.01 0.93 0.96 0.96 0.96 0.78 0.61 0.57 0.59 0.74 0.78 0.76 0.71 0.69 0.63 0.64 0.66 0.75 0.84 0.86 0.87 0.89 0.95 1.05 1.27 1.61 2.05 2.42 2.81 3.04 3.04
0.72 0.73 0.76 0.91 1.12 1.31 1.43 1.37 1.31 1.34 1.29 1.26 1.10 0.89 0.76 0.77 0.85 0.84 0.87 0.79 0.77 0.75 0.70 0.61 0.60 0.61 0.66 0.75 0.82 0.86 0.94 1.07 1.26 1.58 2.01 2.39 2.74 2.99
0.80 0.73 0.71 0.78 0.89 1.07 1.29 1.36 1.45 1.55 1.59 1.53 1.41 1.22 0.94 0.84 0.89 1.05 1.16 1.17 1.03 0.75 0.71 0.67 0.66 0.70 0.64 0.65 0.74 0.79 0.83 0.93 1.10 1.32 1.59 1.91 2.25 2.68
0.72 0.67 0.67 0.65 0.70 0.68 0.80 0.90 1.00 1.17 1.40 1.56 1.63 1.33 1.07 0.96 1.12 1.34 1.39 1.36 1.12 0.91 0.94 0.99 0.81 0.78 0.71 0.74 0.85 0.80 0.85 0.95 1.04 1.17 1.37 1.62 1.88 2.21
0.65 0.66 0.67 0.64 0.63 0.70 0.77 0.80 0.76 0.79 1.00 1.24 1.39 1.25 1.15 1.16 1.35 1.62 1.76 1.81 1.49 1.14 1.13 1.31 1.02 0.87 0.79 0.76 0.87 0.86 0.85 0.92 1.01 1.12 1.24 1.38 1.60 1.88
0.64 0.76 0.81 0.73 0.75 0.90 1.02 0.99 0.81 0.70 0.77 1.07 1.33 1.37 1.40 1.58 1.79 2.14 2.41 2.49 2.18 1.56 1.32 1.44 1.25 1.05 0.95 0.87 0.89 0.97 0.95 0.94 0.97 1.07 1.20 1.31 1.44 1.66
0.66 0.78 1.03 1.00 0.98 1.02 1.08 1.11 1.06 0.81 0.72 0.77 0.86 0.97 1.02 1.09 1.44 1.79 2.05 2.27 2.24 1.98 1.52 1.47 1.46 1.40 1.44 1.09 0.90 0.83 0.87 0.98 1.03 1.06 1.16 1.26 1.39 1.44
0.78 0.84 0.97 1.04 1.03 1.04 1.09 1.08 1.11 1.05 1.01 0.99 0.93 0.88 0.91 1.03 1.19 1.45 1.69 1.93 2.12 1.99 1.58 1.64 1.77 1.67 1.61 1.32 1.02 0.90 0.80 0.78 0.83 0.96 1.10 1.24 1.39 1.47
0.86 0.78 0.86 0.97 1.02 1.04 1.01 1.03 1.09 1.13 1.07 1.03 0.96 0.89 0.88 0.94 1.01 1.16 1.41 1.57 1.70 1.74 1.58 1.71 1.98 1.81 1.71 1.44 1.13 1.03 0.94 0.85 0.79 0.81 0.90 1.19 1.37 1.48
0.92 1.06 1.02 0.97 0.93 0.88 0.88 0.93 0.94 0.91 0.94 0.92 0.81 0.71 0.68 0.74 0.85 1.01 1.19 1.37 1.50 1.56 1.59 1.60 1.72 1.76 1.83 1.67 1.20 1.02 1.06 1.06 0.94 0.87 0.90 0.99 1.12 1.27
0.92 1.00 0.99 0.88 0.78 0.73 0.75 0.77 0.77 0.82 0.91 0.90 0.78 0.67 0.63 0.69 0.81 0.93 1.10 1.25 1.48 1.51 1.46 1.49 1.58 1.82 1.98 1.67 1.39 1.17 1.04 1.15 1.11 1.00 0.96 0.96 1.00 1.05
1.10 1.09 0.99 0.86 0.77 0.68 0.65 0.62 0.63 0.72 0.83 0.83 0.82 0.80 0.77 0.78 0.81 0.86 1.03 1.19 1.36 1.35 1.36 1.47 1.60 1.76 1.92 1.90 1.78 1.40 1.16 1.11 1.13 1.13 1.09 1.11 1.10 1.07
1.09 1.03 0.87 0.76 0.70 0.66 0.65 0.65 0.62 0.64 0.66 0.73 0.79 0.81 0.83 0.85 0.85 0.86 1.00 1.16 1.22 1.19 1.22 1.35 1.63 2.00 2.24 2.24 1.91 1.57 1.31 1.21 1.27 1.33 1.24 1.19 1.15 1.06
0.89 0.78 0.71 0.69 0.66 0.63 0.63 0.63 0.61 0.57 0.62 0.72 0.78 0.81 0.85 0.88 0.88 0.89 0.93 1.03 1.09 1.10 1.16 1.27 1.54 1.94 2.14 2.04 1.92 1.64 1.41 1.27 1.36 1.55 1.47 1.20 1.06 0.98
0.69 0.68 0.66 0.65 0.63 0.62 0.62 0.63 0.62 0.61 0.64 0.69 0.71 0.74 0.78 0.86 0.87 0.82 0.84 0.95 1.02 1.08 1.16 1.27 1.47 1.70 1.88 1.67 1.61 1.68 1.57 1.43 1.44 1.59 1.55 1.30 1.16 1.21
0.61 0.61 0.60 0.63 0.65 0.63 0.61 0.61 0.62 0.63 0.62 0.63 0.65 0.65 0.69 0.79 0.81 0.74 0.77 0.87 1.06 1.16 1.18 1.18 1.30 1.53 1.77 1.87 1.85 1.74 1.72 1.68 1.54 1.55 1.53 1.49 1.45 1.42
0.59 0.62 0.59 0.60 0.64 0.65 0.64 0.62 0.63 0.61 0.60 0.61 0.61 0.62 0.66 0.74 0.77 0.73 0.78 0.88 0.96 1.02 1.06 1.11 1.24 1.58 1.98 2.10 1.91 1.71 1.71 1.80 1.88 1.80 1.67 1.52 1.53 1.50
0.66 0.64 0.59 0.56 0.58 0.61 0.64 0.63 0.62 0.59 0.57 0.61 0.64 0.63 0.66 0.73 0.73 0.77 0.80 0.85 0.93 0.97 1.03 1.17 1.35 1.60 1.84 1.85 1.82 1.72 1.61 1.63 1.73 1.86 2.03 1.78 1.36 1.14

GEFSNE_prec_meanprecacc_228.txt.gz
Total_Precipitation_Accumulation
0.56 0.55 0.56 0.52 0.50 0.52 0.58 0.74 0.96 0.80 0.39 0.27 0.32 0.32 0.34 0.38 0.43 0.46 0.46 0.55 0.63 0.68 0.74 0.80 0.89 0.99 1.14 1.44 2.00 2.69 3.24 3.64 3.62 3.34 3.08 3.04 3.30 3.67
0.68 0.67 0.65 0.63 0.63 0.62 0.63 0.67 0.83 1.01 0.74 0.32 0.33 0.38 0.43 0.45 0.49 0.48 0.48 0.57 0.63 0.72 0.80 0.83 0.91 1.00 1.11 1.25 1.48 1.97 2.61 3.10 3.47 3.64 3.59 3.49 3.53 3.76
0.75 0.77 0.77 0.76 0.78 0.77 0.78 0.78 0.82 0.99 1.00 0.46 0.31 0.37 0.50 0.55 0.54 0.51 0.50 0.54 0.56 0.65 0.76 0.82 0.91 1.01 1.07 1.17 1.30 1.55 2.05 2.58 3.03 3.50 3.82 3.84 3.72 3.69
0.77 0.82 0.84 0.84 0.87 0.88 0.92 0.91 0.88 0.91 1.02 0.74 0.42 0.41 0.49 0.56 0.62 0.61 0.54 0.54 0.55 0.59 0.71 0.82 0.88 0.94 1.00 1.07 1.18 1.37 1.65 2.13 2.52 2.85 3.30 3.54 3.56 3.69
0.71 0.78 0.83 0.91 0.96 0.93 0.94 0.94 0.89 0.83 0.86 0.85 0.59 0.46 0.50 0.55 0.62 0.65 0.64 0.63 0.61 0.62 0.66 0.75 0.85 0.90 0.97 1.03 1.10 1.19 1.31 1.56 1.97 2.45 2.92 3.29 3.35 3.35
0.69 0.73 0.80 0.92 1.01 1.09 1.15 1.06 0.97 1.01 1.01 1.01 0.82 0.64 0.59 0.61 0.75 0.80 0.77 0.73 0.70 0.64 0.66 0.68 0.79 0.89 0.90 0.91 0.94 1.01 1.12 1.36 1.73 2.18 2.54 2.93 3.16 3.14
0.73 0.74 0.78 0.94 1.15 1.35 1.48 1.42 1.37 1.40 1.34 1.30 1.14 0.92 0.78 0.79 0.87 0.85 0.89 0.80 0.79 0.76 0.73 0.64 0.65 0.66 0.71 0.80 0.87 0.91 1.00 1.14 1.34 1.67 2.10 2.48 2.85 3.10
0.81 0.74 0.72 0.81 0.93 1.11 1.33 1.40 1.49 1.60 1.64 1.58 1.45 1.25 0.96 0.86 0.91 1.07 1.19 1.19 1.06 0.78 0.76 0.72 0.71 0.76 0.72 0.71 0.81 0.85 0.89 1.00 1.17 1.39 1.66 1.98 2.33 2.76
0.73 0.68 0.68 0.67 0.73 0.71 0.84 0.94 1.03 1.21 1.44 1.60 1.68 1.36 1.09 0.98 1.15 1.37 1.42 1.39 1.16 0.95 1.01 1.05 0.87 0.85 0.80 0.84 0.93 0.87 0.91 1.01 1.10 1.22 1.42 1.68 1.94 2.28
0.66 0.68 0.69 0.66 0.66 0.74 0.82 0.85 0.79 0.82 1.03 1.28 1.43 1.29 1.19 1.20 1.39 1.66 1.81 1.86 1.53 1.19 1.19 1.38 1.08 0.93 0.86 0.84 0.95 0.93 0.92 0.99 1.07 1.18 1.29 1.44 1.65 1.94
0.66 0.78 0.83 0.74 0.78 0.95 1.07 1.04 0.85 0.73 0.80 1.10 1.37 1.41 1.45 1.64 1.85 2.21 2.48 2.55 2.25 1.63 1.37 1.50 1.31 1.10 0.99 0.92 0.96 1.05 1.02 1.01 1.04 1.14 1.27 1.37 1.50 1.71
0.68 0.80 1.06 1.03 1.00 1.07 1.13 1.16 1.11 0.84 0.75 0.80 0.90 1.01 1.05 1.13 1.49 1.85 2.11 2.35 2.31 2.04 1.56 1.51 1.50 1.44 1.48 1.13 0.94 0.89 0.94 1.07 1.12 1.15 1.24 1.35 1.48 1.51
0.80 0.86 0.99 1.08 1.07 1.08 1.14 1.12 1.16 1.10 1.05 1.03 0.98 0.92 0.95 1.06 1.22 1.49 1.74 1.99 2.20 2.06 1.63 1.70 1.83 1.72 1.66 1.37 1.06 0.95 0.87 0.86 0.92 1.06 1.20 1.33 1.47 1.55
0.88 0.81 0.89 1.01 1.06 1.08 1.05 1.06 1.14 1.18 1.12 1.09 1.02 0.95 0.93 0.98 1.05 1.20 1.45 1.61 1.75 1.80 1.64 1.77 2.05 1.88 1.78 1.50 1.19 1.10 1.02 0.94 0.87 0.91 1.00 1.28 1.45 1.55
0.95 1.09 1.05 1.01 0.97 0.92 0.91 0.97 0.98 0.95 1.00 0.98 0.87 0.78 0.74 0.79 0.90 1.05 1.23 1.41 1.54 1.61 1.64 1.65 1.78 1.83 1.91 1.75 1.28 1.11 1.14 1.14 1.03 0.96 0.99 1.07 1.19 1.34
0.94 1.03 1.03 0.92 0.82 0.78 0.79 0.80 0.80 0.87 0.96 0.96 0.84 0.73 0.69 0.75 0.86 0.97 1.14 1.29 1.52 1.56 1.51 1.54 1.64 1.89 2.06 1.75 1.49 1.26 1.11 1.23 1.20 1.09 1.04 1.05 1.08 1.12
1.14 1.13 1.03 0.90 0.81 0.72 0.68 0.65 0.66 0.77 0.89 0.88 0.88 0.86 0.82 0.83 0.86 0.90 1.08 1.24 1.41 1.40 1.41 1.52 1.66 1.84 2.01 2.00 1.89 1.50 1.23 1.19 1.22 1.22 1.17 1.19 1.19 1.15
1.14 1.08 0.91 0.80 0.74 0.69 0.68 0.68 0.65 0.68 0.71 0.78 0.84 0.86 0.88 0.90 0.90 0.90 1.06 1.21 1.28 1.24 1.28 1.41 1.70 2.08 2.33 2.34 2.02 1.67 1.40 1.30 1.36 1.42 1.31 1.25 1.22 1.12
0.94 0.83 0.75 0.72 0.69 0.67 0.66 0.67 0.64 0.61 0.66 0.76 0.83 0.86 0.89 0.93 0.94 0.95 1.00 1.09 1.15 1.16 1.22 1.34 1.61 2.03 2.22 2.12 2.02 1.74 1.50 1.35 1.44 1.62 1.53 1.25 1.12 1.03
0.73 0.73 0.70 0.68 0.66 0.66 0.66 0.67 0.65 0.64 0.68 0.73 0.76 0.78 0.83 0.91 0.93 0.88 0.90 1.01 1.09 1.15 1.23 1.34 1.54 1.79 1.96 1.74 1.69 1.77 1.65 1.50 1.50 1.65 1.60 1.35 1.21 1.25
0.64 0.65 0.63 0.67 0.69 0.67 0.66 0.65 0.67 0.68 0.66 0.68 0.69 0.70 0.74 0.84 0.86 0.79 0.81 0.92 1.12 1.22 1.24 1.25 1.38 1.61 1.85 1.93 1.91 1.81 1.79 1.74 1.59 1.60 1.57 1.53 1.48 1.47
0.62 0.65 0.62 0.63 0.68 0.69 0.69 0.67 0.68 0.67 0.65 0.65 0.66 0.67 0.70 0.79 0.82 0.77 0.82 0.93 1.02 1.08 1.12 1.18 1.31 1.65 2.05 2.16 1.97 1.76 1.77 1.84 1.92 1.83 1.71 1.56 1.56 1.55
0.69 0.67 0.62 0.58 0.61 0.65 0.68 0.67 0.67 0.64 0.61 0.66 0.68 0.68 0.72 0.79 0.78 0.82 0.85 0.90 0.98 1.04 1.10 1.25 1.42 1.67 1.91 1.90 1.87 1.77 1.66 1.66 1.76 1.88 2.06 1.80 1.38 1.17

GEFSNE_prec_meanprecacc_234.txt.gz
Total_Precipitation_Accumulation
0.56 0.56 0.57 0.52 0.51 0.53 0.59 0.75 0.97 0.81 0.40 0.27 0.32 0.32 0.34 0.38 0.44 0.47 0.47 0.56 0.65 0.70 0.76 0.83 0.92 1.01 1.16 1.46 2.03 2.78 3.38 3.75 3.70 3.41 3.15 3.12 3.39 3.77
0.68 0.67 0.65 0.64 0.64 0.63 0.64 0.69 0.85 1.03 0.76 0.33 0.34 0.39 0.44 0.46 0.50 0.51 0.50 0.59 0.64 0.74 0.82 0.85 0.93 1.02 1.12 1.27 1.49 1.99 2.67 3.21 3.60 3.74 3.66 3.56 3.62 3.87
0.75 0.78 0.77 0.77 0.79 0.78 0.79 0.79 0.83 1.01 1.03 0.48 0.32 0.39 0.51 0.56 0.56 0.54 0.53 0.56 0.58 0.67 0.78 0.84 0.93 1.02 1.09 1.19 1.32 1.57 2.08 2.63 3.11 3.61 3.92 3.92 3.82 3.81
0.78 0.83 0.84 0.85 0.88 0.89 0.93 0.93 0.90 0.93 1.04 0.76 0.44 0.43 0.51 0.58 0.63 0.64 0.57 0.57 0.57 0.61 0.73 0.84 0.90 0.96 1.02 1.10 1.21 1.39 1.68 2.17 2.57 2.92 3.40 3.65 3.68 3.81
0.73 0.79 0.84 0.92 0.97 0.95 0.96 0.96 0.91 0.84 0.88 0.87 0.60 0.48 0.52 0.58 0.65 0.68 0.67 0.67 0.63 0.65 0.68 0.77 0.87 0.92 0.99 1.06 1.13 1.22 1.34 1.58 2.01 2.51 3.00 3.41 3.46 3.45
0.70 0.75 0.82 0.93 1.03 1.10 1.17 1.08 1.00 1.03 1.03 1.03 0.84 0.66 0.61 0.62 0.77 0.82 0.81 0.76 0.73 0.67 0.68 0.70 0.80 0.90 0.92 0.93 0.96 1.03 1.15 1.39 1.76 2.22 2.61 3.04 3.30 3.26
0.74 0.75 0.78 0.95 1.16 1.37 1.50 1.44 1.40 1.44 1.38 1.34 1.16 0.94 0.80 0.80 0.88 0.87 0.92 0.83 0.82 0.79 0.75 0.66 0.66 0.67 0.73 0.83 0.89 0.94 1.04 1.18 1.39 1.72 2.17 2.57 2.97 3.23
0.82 0.76 0.73 0.82 0.94 1.12 1.34 1.42 1.51 1.63 1.68 1.63 1.49 1.28 0.98 0.87 0.93 1.09 1.21 1.22 1.08 0.81 0.78 0.75 0.74 0.78 0.74 0.74 0.84 0.90 0.95 1.06 1.24 1.46 1.75 2.07 2.42 2.86
0.74 0.69 0.69 0.68 0.74 0.72 0.85 0.95 1.05 1.23 1.47 1.64 1.72 1.40 1.12 1.01 1.18 1.40 1.45 1.42 1.18 0.98 1.04 1.10 0.91 0.88 0.82 0.88 1.00 0.93 0.96 1.06 1.16 1.29 1.50 1.76 2.02 2.37
0.67 0.69 0.70 0.67 0.67 0.75 0.83 0.86 0.80 0.83 1.05 1.30 1.46 1.32 1.22 1.24 1.44 1.71 1.85 1.90 1.57 1.23 1.23 1.44 1.12 0.96 0.88 0.90 1.04 0.99 0.97 1.04 1.13 1.23 1.35 1.50 1.72 2.01
0.66 0.79 0.84 0.75 0.78 0.96 1.09 1.06 0.87 0.74 0.82 1.13 1.41 1.45 1.49 1.68 1.91 2.28 2.54 2.61 2.30 1.67 1.42 1.56 1.35 1.13 1.02 0.96 1.02 1.10 1.07 1.05 1.08 1.18 1.31 1.43 1.57 1.79
0.68 0.81 1.07 1.04 1.02 1.09 1.15 1.19 1.13 0.86 0.78 0.83 0.93 1.04 1.09 1.18 1.54 1.90 2.17 2.41 2.36 2.10 1.61 1.57 1.55 1.48 1.53 1.17 0.98 0.93 0.98 1.11 1.16 1.19 1.29 1.41 1.55 1.58
0.80 0.87 1.00 1.09 1.08 1.10 1.16 1.15 1.18 1.12 1.08 1.07 1.01 0.95 0.98 1.10 1.27 1.53 1.79 2.04 2.24 2.10 1.68 1.76 1.89 1.76 1.71 1.41 1.09 0.98 0.90 0.90 0.96 1.10 1.26 1.40 1.55 1.62
0.89 0.81 0.90 1.02 1.08 1.11 1.07 1.08 1.16 1.21 1.15 1.12 1.06 0.99 0.96 1.02 1.09 1.24 1.50 1.66 1.79 1.84 1.69 1.83 2.11 1.92 1.82 1.55 1.23 1.14 1.05 0.98 0.93 0.98 1.07 1.35 1.53 1.64
0.95 1.10 1.06 1.02 0.99 0.94 0.93 0.98 1.00 0.98 1.02 1.01 0.91 0.81 0.78 0.83 0.94 1.10 1.28 1.45 1.59 1.66 1.70 1.72 1.83 1.87 1.98 1.83 1.36 1.17 1.19 1.19 1.09 1.04 1.08 1.16 1.28 1.42
0.95 1.04 1.04 0.93 0.83 0.79 0.81 0.82 0.82 0.89 0.98 0.98 0.86 0.76 0.73 0.80 0.92 1.02 1.18 1.33 1.57 1.61 1.56 1.60 1.71 1.97 2.14 1.83 1.58 1.36 1.20 1.31 1.27 1.18 1.15 1.16 1.19 1.23
1.15 1.15 1.05 0.91 0.83 0.74 0.70 0.67 0.68 0.79 0.91 0.90 0.90 0.89 0.85 0.88 0.92 0.95 1.12 1.27 1.46 1.45 1.45 1.57 1.72 1.91 2.09 2.08 1.98 1.60 1.34 1.28 1.31 1.31 1.27 1.29 1.29 1.25
1.16 1.09 0.92 0.81 0.76 0.71 0.70 0.70 0.68 0.70 0.74 0.80 0.86 0.89 0.92 0.94 0.94 0.95 1.10 1.26 1.33 1.29 1.34 1.46 1.74 2.13 2.40 2.42 2.11 1.78 1.51 1.40 1.45 1.50 1.39 1.33 1.31 1.21
0.96 0.85 0.76 0.74 0.71 0.69 0.69 0.69 0.67 0.63 0.68 0.79 0.86 0.90 0.93 0.97 0.99 1.00 1.05 1.15 1.21 1.22 1.28 1.40 1.67 2.10 2.31 2.20 2.10 1.83 1.60 1.46 1.53 1.71 1.61 1.33 1.20 1.11
0.74 0.75 0.72 0.70 0.69 0.68 0.68 0.69 0.68 0.66 0.70 0.76 0.79 0.82 0.88 0.96 0.98 0.93 0.95 1.07 1.16 1.22 1.30 1.40 1.60 1.85 2.04 1.83 1.78 1.87 1.75 1.61 1.60 1.74 1.68 1.42 1.28 1.32
0.66 0.67 0.66 0.69 0.71 0.70 0.68 0.68 0.69 0.70 0.68 0.70 0.73 0.74 0.78 0.89 0.91 0.85 0.88 0.99 1.19 1.30 1.31 1.31 1.45 1.68 1.92 2.02 2.01 1.91 1.88 1.84 1.69 1.69 1.64 1.59 1.54 1.52
0.64 0.67 0.65 0.66 0.70 0.72 0.71 0.69 0.70 0.69 0.68 0.68 0.69 0.70 0.74 0.84 0.87 0.83 0.90 1.00 1.09 1.15 1.19 1.25 1.38 1.72 2.12 2.23 2.04 1.84 1.84 1.92 2.00 1.90 1.77 1.61 1.62 1.60
0.72 0.70 0.65 0.61 0.63 0.68 0.71 0.71 0.70 0.67 0.64 0.69 0.71 0.72 0.75 0.82 0.82 0.87 0.91 0.96 1.04 1.10 1.16 1.31 1.49 1.74 1.98 1.96 1.93 1.83 1.72 1.73 1.83 1.94 2.12 1.86 1.43 1.21

GEFSNE_prec_meanprecacc_240.txt.gz
Total_Precipitation_Accumulation
0.56 0.56 0.57 0.53 0.51 0.53 0.59 0.75 0.98 0.82 0.41 0.27 0.32 0.33 0.34 0.39 0.44 0.47 0.47 0.57 0.66 0.71 0.76 0.83 0.93 1.03 1.18 1.48 2.05 2.81 3.42 3.81 3.76 3.46 3.20 3.16 3.43 3.82
0.69 0.68 0.66 0.64 0.64 0.63 0.65 0.69 0.85 1.04 0.78 0.33 0.34 0.39 0.44 0.46 0.51 0.51 0.50 0.59 0.65 0.74 0.82 0.85 0.94 1.04 1.14 1.29 1.52 2.03 2.71 3.25 3.64 3.78 3.71 3.61 3.67 3.92
0.76 0.78 0.78 0.77 0.80 0.79 0.79 0.79 0.84 1.02 1.04 0.49 0.33 0.39 0.52 0.57 0.56 0.54 0.54 0.57 0.58 0.67 0.79 0.85 0.93 1.04 1.11 1.21 1.35 1.61 2.13 2.68 3.16 3.64 3.96 3.98 3.89 3.88
0.78 0.84 0.85 0.85 0.88 0.89 0.94 0.93 0.90 0.94 1.05 0.77 0.45 0.43 0.52 0.58 0.64 0.64 0.58 0.57 0.58 0.62 0.74 0.85 0.91 0.98 1.04 1.12 1.24 1.42 1.72 2.22 2.63 2.97 3.44 3.69 3.73 3.88
0.73 0.80 0.85 0.92 0.97 0.95 0.96 0.96 0.91 0.85 0.89 0.88 0.61 0.48 0.52 0.58 0.65 0.69 0.67 0.67 0.64 0.65 0.69 0.78 0.88 0.93 1.01 1.08 1.15 1.24 1.37 1.62 2.05 2.56 3.05 3.44 3.49 3.49
0.70 0.75 0.82 0.94 1.03 1.11 1.19 1.10 1.01 1.05 1.05 1.04 0.85 0.66 0.61 0.62 0.78 0.83 0.81 0.77 0.74 0.67 0.69 0.71 0.81 0.92 0.95 0.95 0.98 1.05 1.18 1.43 1.80 2.27 2.66 3.08 3.33 3.29
0.75 0.75 0.79 0.95 1.17 1.38 1.51 1.46 1.42 1.46 1.40 1.35 1.17 0.95 0.80 0.81 0.89 0.88 0.93 0.84 0.83 0.80 0.76 0.68 0.68 0.70 0.76 0.85 0.92 0.96 1.06 1.21 1.43 1.77 2.22 2.61 3.00 3.26
0.82 0.76 0.74 0.82 0.95 1.13 1.36 1.44 1.53 1.65 1.70 1.65 1.51 1.29 0.99 0.88 0.93 1.10 1.22 1.23 1.10 0.82 0.80 0.77 0.77 0.82 0.77 0.76 0.87 0.93 0.98 1.09 1.29 1.51 1.81 2.12 2.46 2.90
0.74 0.70 0.70 0.69 0.75 0.73 0.86 0.96 1.06 1.24 1.48 1.66 1.74 1.42 1.13 1.02 1.19 1.42 1.46 1.44 1.20 1.00 1.07 1.14 0.95 0.92 0.85 0.91 1.03 0.97 1.00 1.10 1.21 1.35 1.56 1.84 2.09 2.43
0.67 0.69 0.70 0.67 0.67 0.75 0.83 0.87 0.81 0.84 1.06 1.31 1.47 1.33 1.23 1.25 1.45 1.73 1.87 1.92 1.59 1.25 1.27 1.48 1.14 0.99 0.91 0.93 1.09 1.04 1.02 1.09 1.17 1.28 1.41 1.55 1.77 2.08
0.66 0.79 0.84 0.75 0.79 0.97 1.10 1.07 0.88 0.75 0.82 1.14 1.41 1.46 1.50 1.70 1.93 2.30 2.57 2.65 2.33 1.70 1.45 1.59 1.37 1.15 1.05 0.99 1.06 1.14 1.11 1.10 1.13 1.23 1.37 1.48 1.61 1.85
0.68 0.81 1.07 1.04 1.02 1.10 1.17 1.20 1.14 0.87 0.78 0.84 0.94 1.05 1.10 1.18 1.55 1.92 2.19 2.44 2.40 2.13 1.63 1.60 1.58 1.51 1.56 1.20 1.00 0.95 1.00 1.14 1.19 1.22 1.33 1.46 1.62 1.65
0.81 0.87 1.00 1.09 1.09 1.11 1.18 1.16 1.20 1.14 1.10 1.08 1.02 0.96 0.99 1.11 1.28 1.54 1.80 2.07 2.28 2.14 1.70 1.79 1.92 1.79 1.75 1.45 1.12 1.00 0.92 0.91 0.98 1.13 1.30 1.47 1.62 1.69
0.90 0.82 0.90 1.03 1.09 1.12 1.08 1.10 1.18 1.23 1.17 1.14 1.08 1.00 0.97 1.03 1.11 1.26 1.51 1.68 1.82 1.87 1.71 1.87 2.15 1.97 1.87 1.59 1.26 1.16 1.07 1.00 0.95 1.00 1.11 1.43 1.60 1.71
0.96 1.10 1.07 1.03 0.99 0.95 0.94 0.99 1.01 0.99 1.04 1.02 0.92 0.83 0.79 0.84 0.95 1.12 1.30 1.48 1.62 1.70 1.74 1.75 1.87 1.91 2.02 1.88 1.40 1.20 1.22 1.22 1.11 1.07 1.12 1.22 1.34 1.50
0.96 1.04 1.04 0.94 0.84 0.80 0.82 0.83 0.83 0.90 1.00 1.00 0.88 0.78 0.74 0.82 0.93 1.03 1.20 1.35 1.59 1.64 1.60 1.64 1.75 2.02 2.20 1.88 1.62 1.40 1.24 1.35 1.31 1.22 1.20 1.23 1.27 1.31
1.17 1.16 1.05 0.92 0.83 0.75 0.71 0.68 0.69 0.80 0.92 0.91 0.92 0.91 0.87 0.90 0.93 0.97 1.13 1.29 1.48 1.47 1.48 1.60 1.75 1.95 2.15 2.14 2.03 1.65 1.38 1.32 1.35 1.37 1.33 1.36 1.36 1.32
1.17 1.10 0.93 0.81 0.76 0.72 0.71 0.71 0.69 0.71 0.75 0.81 0.88 0.91 0.93 0.96 0.96 0.97 1.11 1.28 1.35 1.32 1.36 1.49 1.77 2.17 2.44 2.47 2.16 1.83 1.56 1.45 1.51 1.56 1.45 1.40 1.38 1.28
0.97 0.86 0.77 0.75 0.72 0.70 0.70 0.70 0.68 0.64 0.70 0.80 0.88 0.92 0.95 0.99 1.01 1.01 1.06 1.17 1.23 1.24 1.31 1.43 1.71 2.14 2.36 2.24 2.13 1.87 1.66 1.52 1.59 1.77 1.67 1.40 1.28 1.20
0.76 0.76 0.74 0.71 0.70 0.70 0.70 0.71 0.69 0.68 0.71 0.77 0.81 0.85 0.90 0.99 1.00 0.95 0.97 1.10 1.19 1.25 1.33 1.43 1.64 1.90 2.11 1.89 1.84 1.92 1.81 1.69 1.69 1.83 1.76 1.50 1.37 1.40
0.68 0.69 0.67 0.71 0.73 0.71 0.69 0.69 0.71 0.73 0.71 0.73 0.75 0.76 0.80 0.91 0.94 0.88 0.91 1.02 1.22 1.33 1.35 1.35 1.48 1.72 1.98 2.08 2.07 1.97 1.95 1.91 1.79 1.79 1.73 1.67 1.62 1.59
0.66 0.69 0.67 0.68 0.72 0.74 0.73 0.71 0.73 0.71 0.70 0.70 0.71 0.72 0.76 0.86 0.90 0.87 0.93 1.03 1.12 1.19 1.23 1.28 1.41 1.76 2.16 2.29 2.10 1.90 1.91 2.00 2.08 1.97 1.84 1.69 1.71 1.69
0.74 0.72 0.67 0.63 0.65 0.69 0.73 0.72 0.72 0.68 0.66 0.71 0.73 0.73 0.77 0.85 0.85 0.90 0.94 0.99 1.08 1.13 1.19 1.34 1.52 1.77 2.02 2.01 1.98 1.89 1.78 1.80 1.89 2.00 2.18 1.92 1.50 1.27

GEFSNE_prec_meanprecacc_246.txt.gz
Total_Precipitation_Accumulation
0.60 0.59 0.59 0.54 0.52 0.54 0.59 0.76 0.98 0.82 0.41 0.27 0.32 0.33 0.34 0.39 0.45 0.48 0.48 0.57 0.66 0.71 0.77 0.84 0.93 1.03 1.19 1.49 2.06 2.82 3.44 3.83 3.79 3.50 3.26 3.23 3.51 3.90
0.72 0.70 0.67 0.65 0.65 0.63 0.65 0.69 0.86 1.05 0.78 0.33 0.34 0.39 0.44 0.46 0.51 0.51 0.51 0.59 0.65 0.75 0.83 0.86 0.94 1.04 1.15 1.30 1.53 2.05 2.74 3.28 3.66 3.82 3.75 3.67 3.74 3.99
0.78 0.80 0.79 0.78 0.80 0.79 0.79 0.80 0.84 1.02 1.05 0.49 0.33 0.39 0.52 0.57 0.57 0.54 0.54 0.57 0.59 0.67 0.79 0.85 0.94 1.04 1.12 1.22 1.37 1.63 2.15 2.70 3.18 3.68 4.00 4.03 3.96 3.94
0.80 0.85 0.86 0.86 0.89 0.89 0.94 0.93 0.90 0.94 1.06 0.78 0.45 0.43 0.52 0.58 0.64 0.64 0.58 0.58 0.58 0.62 0.74 0.86 0.92 0.99 1.06 1.14 1.26 1.44 1.74 2.24 2.66 3.01 3.49 3.75 3.79 3.95
0.74 0.81 0.86 0.93 0.98 0.96 0.97 0.97 0.92 0.86 0.90 0.89 0.62 0.48 0.52 0.58 0.65 0.69 0.68 0.68 0.64 0.66 0.69 0.79 0.89 0.95 1.02 1.09 1.17 1.26 1.40 1.65 2.08 2.59 3.09 3.49 3.56 3.56
0.71 0.76 0.83 0.95 1.04 1.12 1.19 1.10 1.02 1.06 1.06 1.06 0.86 0.67 0.62 0.63 0.79 0.83 0.82 0.77 0.74 0.67 0.69 0.72 0.82 0.93 0.96 0.97 1.00 1.08 1.20 1.45 1.82 2.29 2.69 3.14 3.40 3.36
0.75 0.76 0.79 0.96 1.18 1.39 1.52 1.47 1.43 1.48 1.42 1.37 1.19 0.96 0.81 0.82 0.90 0.88 0.93 0.84 0.83 0.80 0.77 0.68 0.69 0.71 0.77 0.87 0.94 0.99 1.08 1.23 1.45 1.79 2.25 2.66 3.06 3.32
0.84 0.77 0.75 0.83 0.95 1.14 1.37 1.45 1.55 1.67 1.72 1.67 1.53 1.31 1.00 0.89 0.94 1.11 1.24 1.24 1.11 0.82 0.81 0.78 0.77 0.83 0.78 0.78 0.89 0.95 1.00 1.11 1.31 1.55 1.85 2.18 2.51 2.95
0.75 0.71 0.71 0.70 0.76 0.74 0.87 0.97 1.07 1.25 1.50 1.68 1.76 1.43 1.14 1.02 1.20 1.43 1.48 1.45 1.22 1.01 1.08 1.15 0.96 0.93 0.86 0.92 1.05 0.99 1.02 1.12 1.24 1.38 1.60 1.89 2.14 2.48
0.68 0.70 0.71 0.68 0.68 0.76 0.84 0.87 0.81 0.84 1.07 1.32 1.48 1.34 1.24 1.25 1.47 1.75 1.89 1.94 1.60 1.26 1.27 1.49 1.15 1.00 0.92 0.94 1.11 1.06 1.04 1.10 1.19 1.31 1.45 1.59 1.81 2.13
0.67 0.79 0.84 0.75 0.79 0.98 1.11 1.08 0.88 0.76 0.83 1.15 1.42 1.47 1.51 1.71 1.95 2.32 2.60 2.67 2.35 1.71 1.46 1.60 1.38 1.16 1.06 1.00 1.07 1.16 1.13 1.11 1.15 1.25 1.40 1.52 1.66 1.90
0.69 0.81 1.07 1.05 1.03 1.11 1.18 1.21 1.16 0.88 0.79 0.84 0.94 1.06 1.10 1.19 1.56 1.93 2.21 2.47 2.43 2.15 1.64 1.62 1.59 1.52 1.57 1.21 1.01 0.96 1.01 1.15 1.20 1.24 1.36 1.50 1.67 1.71
0.82 0.88 1.01 1.10 1.10 1.12 1.19 1.17 1.21 1.15 1.11 1.09 1.03 0.97 0.99 1.12 1.28 1.55 1.81 2.09 2.31 2.16 1.72 1.81 1.95 1.81 1.76 1.46 1.12 1.01 0.92 0.92 0.99 1.14 1.31 1.50 1.66 1.74
0.90 0.82 0.90 1.03 1.10 1.13 1.09 1.10 1.19 1.24 1.18 1.15 1.08 1.01 0.98 1.04 1.11 1.26 1.52 1.68 1.83 1.89 1.72 1.88 2.18 1.99 1.90 1.61 1.26 1.16 1.08 1.00 0.95 1.01 1.12 1.45 1.63 1.75
0.97 1.11 1.07 1.04 1.00 0.95 0.94 1.00 1.02 0.99 1.04 1.03 0.93 0.83 0.79 0.84 0.96 1.12 1.31 1.49 1.63 1.70 1.74 1.76 1.89 1.93 2.05 1.91 1.42 1.21 1.23 1.23 1.13 1.09 1.14 1.25 1.38 1.53
0.97 1.05 1.05 0.95 0.85 0.81 0.82 0.84 0.83 0.90 1.01 1.01 0.89 0.79 0.75 0.82 0.94 1.04 1.21 1.36 1.60 1.65 1.61 1.65 1.76 2.04 2.23 1.91 1.65 1.43 1.25 1.38 1.33 1.25 1.24 1.26 1.31 1.35
1.19 1.17 1.06 0.92 0.84 0.75 0.71 0.68 0.69 0.81 0.93 0.92 0.93 0.91 0.88 0.90 0.94 0.97 1.14 1.30 1.49 1.48 1.49 1.61 1.77 1.98 2.18 2.18 2.07 1.68 1.41 1.35 1.39 1.41 1.37 1.39 1.40 1.38
1.20 1.12 0.94 0.82 0.77 0.73 0.72 0.71 0.69 0.72 0.76 0.83 0.89 0.92 0.95 0.97 0.97 0.98 1.13 1.30 1.36 1.33 1.37 1.51 1.80 2.20 2.48 2.51 2.20 1.87 1.59 1.48 1.53 1.60 1.50 1.44 1.42 1.33
0.99 0.87 0.78 0.76 0.73 0.71 0.71 0.71 0.69 0.65 0.71 0.82 0.89 0.93 0.97 1.01 1.02 1.03 1.08 1.18 1.24 1.26 1.32 1.45 1.74 2.19 2.41 2.28 2.16 1.90 1.70 1.56 1.62 1.80 1.71 1.44 1.33 1.26
0.78 0.78 0.75 0.73 0.72 0.71 0.71 0.72 0.70 0.69 0.73 0.79 0.84 0.87 0.92 1.01 1.03 0.97 0.99 1.11 1.21 1.27 1.35 1.45 1.67 1.95 2.17 1.94 1.88 1.95 1.85 1.73 1.73 1.87 1.80 1.54 1.41 1.45
0.69 0.71 0.69 0.73 0.75 0.73 0.71 0.71 0.72 0.74 0.73 0.75 0.77 0.78 0.83 0.93 0.96 0.90 0.94 1.04 1.24 1.35 1.37 1.37 1.51 1.76 2.02 2.11 2.11 2.00 1.98 1.95 1.83 1.85 1.79 1.72 1.66 1.62
0.68 0.71 0.68 0.69 0.74 0.75 0.74 0.73 0.74 0.73 0.71 0.72 0.73 0.74 0.78 0.89 0.93 0.89 0.95 1.06 1.14 1.21 1.25 1.30 1.43 1.78 2.19 2.32 2.13 1.93 1.94 2.03 2.11 2.02 1.90 1.76 1.79 1.77
0.76 0.74 0.68 0.64 0.66 0.71 0.74 0.74 0.74 0.70 0.67 0.72 0.75 0.76 0.79 0.87 0.88 0.92 0.96 1.01 1.10 1.16 1.22 1.37 1.54 1.79 2.04 2.03 2.01 1.93 1.82 1.84 1.93 2.04 2.23 1.97 1.56 1.34

GEFSNE_prec_meanprecacc_252.txt.gz
Total_Precipitation_Accumulation
0.62 0.61 0.62 0.56 0.54 0.56 0.61 0.76 0.99 0.83 0.41 0.27 0.32 0.33 0.35 0.39 0.45 0.48 0.48 0.57 0.66 0.71 0.77 0.84 0.94 1.04 1.20 1.50 2.07 2.84 3.45 3.85 3.81 3.52 3.28 3.26 3.54 3.93
0.76 0.74 0.71 0.68 0.67 0.66 0.67 0.70 0.86 1.05 0.79 0.34 0.34 0.39 0.44 0.46 0.51 0.51 0.51 0.60 0.65 0.75 0.83 0.87 0.95 1.05 1.16 1.31 1.55 2.06 2.75 3.30 3.68 3.84 3.78 3.71 3.78 4.03
0.81 0.83 0.81 0.81 0.83 0.82 0.81 0.81 0.85 1.03 1.06 0.49 0.33 0.39 0.52 0.57 0.57 0.55 0.54 0.57 0.59 0.68 0.80 0.86 0.95 1.05 1.13 1.24 1.39 1.65 2.17 2.72 3.20 3.70 4.03 4.06 3.99 3.98
0.84 0.88 0.88 0.88 0.91 0.91 0.95 0.94 0.91 0.95 1.07 0.78 0.45 0.44 0.52 0.58 0.64 0.65 0.58 0.58 0.58 0.63 0.75 0.86 0.93 1.00 1.07 1.15 1.27 1.45 1.75 2.26 2.68 3.03 3.52 3.78 3.83 3.99
0.80 0.86 0.89 0.96 1.00 0.97 0.98 0.98 0.93 0.87 0.91 0.90 0.62 0.48 0.53 0.58 0.66 0.70 0.68 0.68 0.64 0.66 0.70 0.79 0.90 0.95 1.03 1.10 1.18 1.28 1.41 1.67 2.10 2.62 3.13 3.53 3.59 3.59
0.76 0.80 0.87 0.99 1.07 1.14 1.21 1.12 1.03 1.07 1.08 1.07 0.87 0.68 0.62 0.63 0.79 0.84 0.82 0.77 0.74 0.68 0.69 0.72 0.83 0.93 0.97 0.98 1.01 1.09 1.22 1.46 1.84 2.32 2.73 3.17 3.43 3.38
0.78 0.78 0.82 0.99 1.21 1.41 1.54 1.48 1.44 1.49 1.43 1.39 1.21 0.97 0.82 0.82 0.90 0.89 0.94 0.85 0.83 0.81 0.77 0.68 0.69 0.71 0.77 0.88 0.95 1.00 1.09 1.24 1.47 1.82 2.28 2.69 3.08 3.33
0.86 0.80 0.77 0.86 0.98 1.16 1.39 1.46 1.56 1.68 1.75 1.69 1.55 1.32 1.00 0.89 0.95 1.12 1.24 1.25 1.11 0.83 0.81 0.78 0.77 0.83 0.79 0.78 0.90 0.96 1.01 1.13 1.33 1.57 1.87 2.20 2.53 2.97
0.77 0.73 0.73 0.72 0.79 0.76 0.89 0.99 1.08 1.27 1.52 1.70 1.78 1.44 1.15 1.03 1.21 1.44 1.48 1.46 1.22 1.01 1.08 1.15 0.96 0.93 0.87 0.92 1.06 1.00 1.04 1.13 1.25 1.40 1.62 1.91 2.17 2.50
0.69 0.71 0.72 0.70 0.70 0.78 0.86 0.89 0.83 0.85 1.08 1.34 1.49 1.35 1.25 1.26 1.48 1.76 1.91 1.96 1.61 1.27 1.28 1.49 1.15 1.00 0.93 0.95 1.11 1.07 1.04 1.12 1.21 1.33 1.47 1.61 1.83 2.14
0.68 0.81 0.86 0.77 0.81 1.00 1.13 1.09 0.89 0.76 0.83 1.15 1.43 1.48 1.52 1.72 1.96 2.34 2.61 2.69 2.37 1.71 1.46 1.61 1.38 1.17 1.07 1.01 1.08 1.16 1.14 1.13 1.16 1.27 1.42 1.54 1.68 1.92
0.70 0.82 1.09 1.06 1.04 1.12 1.19 1.23 1.17 0.88 0.79 0.85 0.95 1.06 1.11 1.19 1.57 1.94 2.22 2.49 2.45 2.16 1.65 1.62 1.60 1.54 1.59 1.22 1.02 0.97 1.02 1.16 1.21 1.25 1.37 1.52 1.69 1.72
0.83 0.89 1.02 1.11 1.11 1.13 1.20 1.19 1.22 1.16 1.12 1.10 1.03 0.97 1.00 1.12 1.29 1.56 1.82 2.11 2.33 2.18 1.72 1.82 1.96 1.82 1.79 1.47 1.13 1.02 0.93 0.93 0.99 1.14 1.32 1.51 1.67 1.76
0.92 0.83 0.91 1.05 1.11 1.14 1.10 1.11 1.20 1.25 1.19 1.16 1.09 1.01 0.98 1.04 1.11 1.26 1.52 1.69 1.84 1.90 1.73 1.89 2.20 2.02 1.93 1.63 1.28 1.17 1.08 1.01 0.96 1.02 1.13 1.46 1.64 1.76
0.99 1.12 1.09 1.05 1.01 0.96 0.95 1.01 1.03 1.00 1.05 1.04 0.94 0.84 0.80 0.85 0.96 1.13 1.31 1.49 1.63 1.70 1.75 1.77 1.90 1.95 2.08 1.94 1.44 1.22 1.24 1.23 1.13 1.09 1.15 1.26 1.38 1.55
0.99 1.07 1.07 0.96 0.86 0.81 0.83 0.84 0.84 0.91 1.02 1.02 0.90 0.79 0.75 0.83 0.94 1.05 1.22 1.37 1.61 1.66 1.61 1.66 1.78 2.06 2.25 1.93 1.67 1.44 1.26 1.38 1.34 1.26 1.24 1.27 1.31 1.36
1.21 1.19 1.08 0.94 0.85 0.76 0.72 0.69 0.70 0.82 0.94 0.93 0.94 0.92 0.89 0.91 0.94 0.98 1.15 1.32 1.51 1.50 1.50 1.62 1.78 1.99 2.20 2.20 2.10 1.69 1.41 1.36 1.39 1.41 1.38 1.40 1.40 1.39
1.22 1.14 0.95 0.84 0.79 0.74 0.73 0.73 0.70 0.73 0.77 0.84 0.90 0.93 0.96 0.98 0.99 1.00 1.15 1.32 1.39 1.35 1.39 1.52 1.81 2.21 2.49 2.53 2.22 1.88 1.60 1.50 1.55 1.61 1.51 1.46 1.44 1.35
1.02 0.90 0.81 0.79 0.76 0.73 0.73 0.73 0.70 0.66 0.72 0.83 0.91 0.95 0.99 1.04 1.05 1.06 1.11 1.21 1.26 1.27 1.34 1.47 1.76 2.22 2.44 2.30 2.18 1.92 1.73 1.59 1.65 1.81 1.73 1.47 1.36 1.28
0.80 0.81 0.78 0.76 0.74 0.73 0.73 0.74 0.72 0.70 0.74 0.81 0.85 0.89 0.95 1.04 1.05 1.00 1.01 1.13 1.23 1.29 1.36 1.47 1.69 1.99 2.22 1.99 1.91 1.98 1.88 1.78 1.77 1.90 1.83 1.56 1.43 1.48
0.72 0.73 0.72 0.75 0.77 0.75 0.73 0.72 0.74 0.76 0.74 0.76 0.79 0.81 0.85 0.96 0.99 0.92 0.95 1.06 1.25 1.37 1.39 1.39 1.53 1.78 2.05 2.15 2.14 2.02 2.00 1.98 1.88 1.90 1.84 1.76 1.70 1.65
0.70 0.73 0.70 0.71 0.76 0.77 0.76 0.74 0.76 0.75 0.73 0.74 0.75 0.76 0.80 0.91 0.95 0.91 0.97 1.08 1.16 1.23 1.27 1.32 1.45 1.80 2.22 2.35 2.16 1.95 1.96 2.05 2.14 2.06 1.95 1.82 1.85 1.84
0.78 0.76 0.70 0.66 0.68 0.72 0.76 0.75 0.75 0.71 0.68 0.74 0.77 0.77 0.81 0.89 0.89 0.94 0.98 1.03 1.12 1.18 1.23 1.38 1.55 1.81 2.06 2.06 2.03 1.95 1.85 1.86 1.96 2.07 2.27 2.01 1.60 1.39

GEFSNE_prec_meanprecacc_258.txt.gz
Total_Precipitation_Accumulation
0.64 0.63 0.64 0.59 0.57 0.59 0.65 0.81 1.03 0.86 0.43 0.29 0.34 0.34 0.36 0.40 0.46 0.48 0.48 0.57 0.67 0.72 0.78 0.85 0.94 1.05 1.20 1.51 2.08 2.85 3.46 3.86 3.82 3.54 3.31 3.29 3.57 3.96
0.78 0.76 0.73 0.71 0.71 0.70 0.72 0.76 0.92 1.10 0.82 0.36 0.36 0.41 0.45 0.48 0.53 0.52 0.51 0.60 0.66 0.75 0.83 0.87 0.96 1.06 1.16 1.32 1.56 2.07 2.77 3.32 3.70 3.86 3.81 3.74 3.81 4.06
0.83 0.85 0.83 0.83 0.86 0.85 0.86 0.86 0.91 1.09 1.10 0.52 0.35 0.41 0.54 0.58 0.58 0.55 0.54 0.57 0.59 0.68 0.80 0.86 0.95 1.06 1.13 1.24 1.40 1.66 2.18 2.73 3.21 3.72 4.05 4.09 4.01 4.01
0.86 0.90 0.91 0.91 0.94 0.94 0.98 0.98 0.95 0.99 1.10 0.81 0.48 0.46 0.53 0.60 0.65 0.65 0.58 0.58 0.59 0.63 0.75 0.86 0.93 1.00 1.08 1.16 1.28 1.46 1.76 2.27 2.69 3.04 3.53 3.80 3.85 4.02
0.81 0.88 0.93 1.00 1.03 1.01 1.02 1.02 0.97 0.91 0.94 0.94 0.65 0.51 0.55 0.61 0.68 0.71 0.70 0.69 0.65 0.66 0.70 0.79 0.90 0.96 1.04 1.11 1.18 1.28 1.42 1.68 2.11 2.63 3.14 3.55 3.61 3.61
0.78 0.83 0.90 1.01 1.10 1.18 1.25 1.16 1.08 1.12 1.13 1.12 0.92 0.72 0.66 0.66 0.82 0.86 0.84 0.79 0.75 0.68 0.70 0.72 0.83 0.94 0.97 0.99 1.02 1.10 1.22 1.47 1.85 2.34 2.74 3.18 3.44 3.39
0.79 0.79 0.83 1.00 1.23 1.44 1.57 1.51 1.48 1.53 1.47 1.43 1.25 1.02 0.86 0.86 0.94 0.93 0.97 0.87 0.85 0.82 0.78 0.69 0.69 0.71 0.77 0.88 0.96 1.00 1.10 1.24 1.48 1.83 2.29 2.70 3.10 3.36
0.87 0.80 0.78 0.86 0.99 1.17 1.40 1.48 1.58 1.71 1.78 1.72 1.58 1.35 1.03 0.92 0.98 1.14 1.27 1.28 1.13 0.84 0.82 0.79 0.78 0.83 0.79 0.79 0.90 0.97 1.01 1.13 1.33 1.58 1.88 2.21 2.55 2.99
0.78 0.73 0.73 0.73 0.79 0.77 0.91 1.01 1.10 1.29 1.54 1.72 1.80 1.46 1.18 1.06 1.24 1.47 1.51 1.48 1.24 1.02 1.09 1.16 0.97 0.94 0.87 0.93 1.06 1.01 1.04 1.14 1.26 1.41 1.64 1.93 2.18 2.52
0.70 0.72 0.73 0.70 0.70 0.79 0.87 0.91 0.85 0.88 1.10 1.36 1.51 1.37 1.27 1.28 1.50 1.79 1.93 1.98 1.63 1.28 1.29 1.50 1.16 1.01 0.93 0.95 1.12 1.07 1.05 1.12 1.22 1.35 1.48 1.63 1.84 2.16
0.70 0.82 0.87 0.78 0.82 1.01 1.14 1.11 0.91 0.78 0.86 1.18 1.46 1.50 1.55 1.74 1.98 2.36 2.63 2.71 2.39 1.72 1.47 1.62 1.39 1.17 1.07 1.01 1.08 1.17 1.14 1.14 1.17 1.28 1.43 1.55 1.69 1.93
0.72 0.84 1.10 1.07 1.06 1.14 1.21 1.24 1.18 0.89 0.80 0.86 0.96 1.07 1.12 1.20 1.58 1.95 2.24 2.52 2.47 2.18 1.65 1.63 1.61 1.54 1.60 1.22 1.02 0.97 1.03 1.17 1.22 1.26 1.38 1.52 1.70 1.73
0.85 0.90 1.04 1.13 1.13 1.16 1.23 1.21 1.25 1.18 1.13 1.11 1.05 0.98 1.01 1.13 1.30 1.57 1.83 2.12 2.36 2.20 1.73 1.83 1.98 1.84 1.80 1.48 1.13 1.02 0.94 0.93 1.00 1.15 1.32 1.51 1.67 1.76
0.94 0.85 0.94 1.07 1.13 1.17 1.13 1.14 1.22 1.27 1.21 1.18 1.11 1.03 1.00 1.06 1.13 1.27 1.53 1.70 1.86 1.91 1.74 1.91 2.23 2.04 1.96 1.66 1.29 1.17 1.09 1.01 0.96 1.02 1.13 1.46 1.64 1.77
1.01 1.15 1.12 1.09 1.04 0.99 0.98 1.04 1.06 1.03 1.08 1.07 0.96 0.86 0.81 0.86 0.97 1.14 1.32 1.50 1.64 1.71 1.76 1.78 1.92 1.98 2.11 1.97 1.46 1.23 1.24 1.24 1.13 1.10 1.15 1.26 1.39 1.55
1.01 1.10 1.10 0.99 0.89 0.85 0.87 0.88 0.88 0.94 1.05 1.05 0.92 0.81 0.77 0.84 0.95 1.06 1.23 1.38 1.62 1.67 1.62 1.67 1.79 2.08 2.28 1.96 1.69 1.45 1.27 1.39 1.35 1.26 1.25 1.27 1.32 1.37
1.23 1.21 1.10 0.96 0.88 0.80 0.76 0.73 0.74 0.85 0.97 0.96 0.96 0.95 0.90 0.92 0.96 0.99 1.17 1.33 1.53 1.51 1.51 1.63 1.80 2.01 2.22 2.22 2.11 1.70 1.42 1.37 1.40 1.42 1.39 1.41 1.41 1.40
1.25 1.18 0.98 0.87 0.82 0.78 0.77 0.76 0.74 0.77 0.80 0.87 0.93 0.95 0.98 1.00 1.00 1.01 1.16 1.34 1.41 1.37 1.41 1.53 1.82 2.22 2.50 2.53 2.23 1.89 1.61 1.51 1.56 1.62 1.52 1.47 1.45 1.36
1.04 0.92 0.83 0.81 0.79 0.76 0.77 0.77 0.74 0.70 0.75 0.86 0.93 0.97 1.01 1.05 1.06 1.07 1.12 1.23 1.28 1.29 1.35 1.48 1.77 2.23 2.45 2.31 2.18 1.93 1.75 1.61 1.66 1.83 1.74 1.49 1.38 1.30
0.82 0.83 0.80 0.78 0.77 0.76 0.76 0.77 0.75 0.73 0.77 0.83 0.87 0.91 0.96 1.05 1.07 1.02 1.03 1.15 1.24 1.30 1.37 1.47 1.70 2.01 2.25 2.02 1.93 1.99 1.90 1.80 1.80 1.93 1.85 1.58 1.45 1.50
0.73 0.75 0.74 0.77 0.79 0.77 0.75 0.75 0.77 0.79 0.76 0.78 0.81 0.82 0.87 0.98 1.00 0.93 0.96 1.07 1.26 1.38 1.40 1.40 1.54 1.79 2.07 2.17 2.16 2.03 2.01 1.99 1.90 1.94 1.87 1.79 1.72 1.67
0.71 0.75 0.72 0.73 0.78 0.79 0.78 0.77 0.78 0.77 0.75 0.75 0.76 0.77 0.81 0.92 0.97 0.92 0.98 1.09 1.17 1.24 1.28 1.33 1.45 1.80 2.23 2.37 2.18 1.96 1.97 2.06 2.15 2.07 1.97 1.86 1.91 1.90
0.80 0.78 0.72 0.68 0.70 0.74 0.78 0.77 0.77 0.73 0.70 0.75 0.78 0.78 0.82 0.90 0.90 0.95 0.99 1.04 1.13 1.19 1.24 1.39 1.56 1.82 2.07 2.07 2.05 1.96 1.86 1.87 1.96 2.07 2.28 2.03 1.62 1.43

GEFSNE_prec_meanprecacc_264.txt.gz
Total_Precipitation_Accumulation
0.66 0.65 0.67 0.62 0.60 0.62 0.68 0.84 1.07 0.89 0.45 0.30 0.35 0.36 0.38 0.43 0.50 0.53 0.54 0.65 0.73 0.75 0.79 0.86 0.95 1.06 1.21 1.52 2.10 2.86 3.48 3.87 3.84 3.56 3.33 3.31 3.60 3.99
0.79 0.77 0.74 0.72 0.72 0.72 0.73 0.78 0.94 1.13 0.84 0.37 0.37 0.42 0.47 0.50 0.57 0.56 0.55 0.65 0.70 0.79 0.86 0.89 0.97 1.06 1.17 1.33 1.57 2.09 2.78 3.33 3.72 3.88 3.83 3.76 3.83 4.08
0.84 0.86 0.85 0.84 0.88 0.87 0.88 0.88 0.93 1.11 1.12 0.54 0.36 0.42 0.55 0.60 0.60 0.58 0.57 0.61 0.62 0.70 0.82 0.88 0.96 1.06 1.14 1.25 1.41 1.67 2.20 2.74 3.23 3.73 4.07 4.10 4.03 4.02
0.87 0.92 0.92 0.93 0.96 0.96 1.01 1.01 0.99 1.02 1.13 0.83 0.49 0.47 0.55 0.61 0.67 0.67 0.61 0.61 0.61 0.65 0.77 0.88 0.94 1.01 1.09 1.17 1.29 1.48 1.78 2.28 2.70 3.06 3.54 3.81 3.87 4.04
0.82 0.89 0.94 1.01 1.05 1.03 1.04 1.05 1.00 0.94 0.97 0.96 0.67 0.53 0.57 0.63 0.70 0.74 0.73 0.72 0.68 0.70 0.73 0.82 0.92 0.97 1.05 1.12 1.20 1.30 1.43 1.69 2.12 2.64 3.16 3.56 3.63 3.63
0.79 0.84 0.91 1.03 1.12 1.20 1.27 1.19 1.11 1.16 1.16 1.15 0.94 0.74 0.68 0.69 0.84 0.90 0.88 0.82 0.78 0.71 0.72 0.75 0.85 0.96 0.99 1.00 1.03 1.11 1.24 1.48 1.86 2.35 2.76 3.20 3.46 3.41
0.79 0.80 0.84 1.01 1.24 1.45 1.58 1.53 1.50 1.57 1.52 1.47 1.28 1.04 0.89 0.89 0.97 0.95 0.99 0.90 0.87 0.83 0.79 0.71 0.71 0.73 0.79 0.90 0.97 1.02 1.11 1.26 1.49 1.85 2.31 2.72 3.12 3.38
0.87 0.81 0.79 0.88 1.00 1.19 1.42 1.50 1.61 1.74 1.81 1.76 1.61 1.38 1.05 0.94 1.00 1.16 1.29 1.30 1.15 0.85 0.83 0.80 0.79 0.84 0.80 0.80 0.91 0.98 1.03 1.14 1.35 1.59 1.90 2.23 2.57 3.01
0.79 0.74 0.74 0.73 0.81 0.78 0.92 1.02 1.12 1.31 1.57 1.75 1.82 1.48 1.20 1.08 1.26 1.49 1.53 1.51 1.26 1.04 1.11 1.18 0.98 0.95 0.88 0.94 1.07 1.01 1.05 1.15 1.27 1.43 1.65 1.94 2.20 2.53
0.71 0.73 0.74 0.72 0.72 0.81 0.89 0.92 0.86 0.89 1.12 1.38 1.52 1.38 1.29 1.31 1.53 1.82 1.97 2.01 1.65 1.30 1.31 1.52 1.18 1.02 0.94 0.96 1.12 1.08 1.06 1.13 1.23 1.36 1.49 1.64 1.85 2.17
0.71 0.83 0.89 0.80 0.84 1.04 1.17 1.13 0.94 0.81 0.88 1.20 1.48 1.53 1.57 1.77 2.01 2.39 2.67 2.76 2.42 1.75 1.49 1.64 1.41 1.19 1.08 1.02 1.09 1.17 1.15 1.14 1.18 1.28 1.43 1.56 1.70 1.94
0.73 0.85 1.12 1.10 1.09 1.18 1.24 1.27 1.21 0.92 0.83 0.88 0.99 1.11 1.15 1.24 1.61 1.98 2.27 2.56 2.52 2.22 1.68 1.66 1.63 1.57 1.62 1.23 1.03 0.98 1.03 1.17 1.23 1.26 1.39 1.53 1.71 1.74
0.85 0.91 1.05 1.15 1.16 1.19 1.26 1.24 1.27 1.22 1.16 1.14 1.07 1.01 1.04 1.16 1.33 1.59 1.86 2.16 2.41 2.25 1.76 1.87 2.01 1.86 1.83 1.50 1.14 1.02 0.94 0.93 1.00 1.15 1.32 1.52 1.68 1.77
0.96 0.87 0.95 1.10 1.16 1.19 1.15 1.16 1.25 1.30 1.24 1.20 1.14 1.06 1.03 1.08 1.15 1.30 1.56 1.73 1.89 1.95 1.76 1.94 2.26 2.07 1.99 1.68 1.29 1.17 1.09 1.01 0.96 1.02 1.13 1.46 1.64 1.77
1.03 1.17 1.15 1.11 1.07 1.01 1.00 1.07 1.09 1.06 1.11 1.10 0.99 0.88 0.84 0.88 1.00 1.16 1.34 1.52 1.66 1.73 1.77 1.79 1.94 1.99 2.13 1.99 1.47 1.23 1.24 1.24 1.13 1.10 1.16 1.27 1.40 1.56
1.03 1.12 1.13 1.02 0.91 0.87 0.90 0.91 0.90 0.97 1.08 1.08 0.95 0.84 0.79 0.87 0.98 1.09 1.26 1.41 1.65 1.69 1.63 1.68 1.81 2.09 2.29 1.96 1.70 1.46 1.28 1.40 1.35 1.27 1.25 1.28 1.32 1.37
1.26 1.24 1.12 0.98 0.90 0.82 0.78 0.75 0.76 0.87 1.00 0.99 1.00 0.99 0.94 0.96 1.00 1.03 1.20 1.36 1.55 1.53 1.53 1.64 1.80 2.02 2.23 2.23 2.12 1.71 1.43 1.37 1.41 1.43 1.40 1.42 1.41 1.40
1.28 1.20 1.00 0.89 0.85 0.80 0.79 0.79 0.77 0.80 0.84 0.91 0.97 1.00 1.02 1.03 1.03 1.03 1.19 1.36 1.43 1.38 1.42 1.54 1.83 2.23 2.50 2.54 2.23 1.90 1.62 1.51 1.56 1.62 1.53 1.48 1.46 1.37
1.05 0.94 0.85 0.83 0.80 0.78 0.79 0.79 0.77 0.72 0.78 0.89 0.96 1.00 1.04 1.08 1.09 1.09 1.14 1.24 1.30 1.30 1.36 1.48 1.78 2.24 2.47 2.32 2.19 1.93 1.75 1.61 1.67 1.83 1.75 1.49 1.39 1.30
0.83 0.84 0.82 0.79 0.78 0.78 0.78 0.79 0.77 0.75 0.79 0.85 0.90 0.93 0.99 1.08 1.10 1.04 1.05 1.17 1.26 1.31 1.37 1.48 1.71 2.02 2.28 2.04 1.94 1.99 1.90 1.81 1.81 1.94 1.86 1.58 1.46 1.50
0.74 0.76 0.75 0.79 0.81 0.79 0.77 0.77 0.78 0.80 0.78 0.80 0.83 0.84 0.89 1.00 1.03 0.95 0.98 1.08 1.28 1.39 1.41 1.40 1.54 1.80 2.08 2.18 2.17 2.04 2.01 2.00 1.91 1.96 1.90 1.82 1.74 1.68
0.72 0.76 0.74 0.75 0.79 0.81 0.80 0.78 0.80 0.79 0.77 0.77 0.78 0.79 0.83 0.94 0.99 0.94 1.00 1.10 1.19 1.25 1.29 1.33 1.45 1.81 2.24 2.39 2.19 1.97 1.98 2.06 2.15 2.07 1.99 1.90 1.97 1.95
0.82 0.79 0.74 0.70 0.72 0.76 0.80 0.79 0.79 0.75 0.72 0.77 0.80 0.81 0.84 0.92 0.92 0.96 1.00 1.06 1.15 1.20 1.25 1.40 1.57 1.83 2.08 2.08 2.06 1.97 1.86 1.88 1.97 2.08 2.29 2.04 1.64 1.46

GEFSNE_prec_meanprecacc_270.txt.gz
Total_Precipitation_Accumulation
0.67 0.66 0.68 0.63 0.61 0.64 0.70 0.87 1.09 0.92 0.47 0.32 0.37 0.37 0.39 0.44 0.51 0.53 0.54 0.66 0.75 0.79 0.82 0.89 1.00 1.10 1.26 1.56 2.13 2.89 3.50 3.89 3.85 3.58 3.35 3.34 3.62 4.02
0.80 0.79 0.76 0.74 0.75 0.74 0.76 0.81 0.98 1.17 0.87 0.38 0.38 0.43 0.48 0.51 0.57 0.57 0.56 0.66 0.72 0.83 0.91 0.93 1.00 1.10 1.21 1.36 1.60 2.12 2.81 3.35 3.73 3.90 3.85 3.78 3.86 4.11
0.86 0.88 0.87 0.87 0.91 0.90 0.92 0.92 0.97 1.15 1.15 0.55 0.37 0.43 0.56 0.61 0.61 0.59 0.58 0.62 0.64 0.73 0.86 0.93 1.01 1.10 1.17 1.29 1.44 1.70 2.22 2.76 3.24 3.75 4.09 4.12 4.05 4.05
0.88 0.94 0.94 0.95 0.98 0.99 1.04 1.04 1.02 1.05 1.16 0.85 0.50 0.48 0.56 0.62 0.68 0.68 0.62 0.62 0.63 0.69 0.81 0.93 1.00 1.07 1.13 1.21 1.32 1.51 1.80 2.30 2.72 3.07 3.56 3.84 3.89 4.07
0.83 0.90 0.95 1.02 1.06 1.04 1.06 1.06 1.01 0.95 0.99 0.98 0.69 0.54 0.59 0.65 0.72 0.75 0.74 0.74 0.71 0.73 0.77 0.86 0.96 1.02 1.10 1.17 1.23 1.33 1.46 1.71 2.15 2.67 3.18 3.59 3.66 3.66
0.80 0.84 0.92 1.04 1.13 1.20 1.28 1.19 1.12 1.17 1.17 1.17 0.96 0.75 0.69 0.71 0.87 0.92 0.90 0.84 0.80 0.73 0.75 0.78 0.89 0.99 1.02 1.04 1.07 1.14 1.26 1.51 1.89 2.39 2.79 3.24 3.50 3.45
0.81 0.81 0.85 1.03 1.25 1.46 1.59 1.54 1.51 1.58 1.53 1.50 1.31 1.07 0.91 0.91 0.99 0.98 1.02 0.92 0.89 0.86 0.82 0.73 0.73 0.74 0.81 0.92 1.00 1.04 1.13 1.28 1.52 1.88 2.34 2.75 3.15 3.41
0.89 0.83 0.81 0.90 1.02 1.20 1.43 1.52 1.63 1.76 1.83 1.79 1.64 1.41 1.08 0.96 1.02 1.19 1.33 1.34 1.18 0.87 0.85 0.82 0.81 0.86 0.82 0.81 0.94 1.00 1.05 1.16 1.36 1.61 1.92 2.26 2.60 3.04
0.80 0.75 0.75 0.75 0.82 0.79 0.94 1.04 1.14 1.34 1.59 1.77 1.86 1.52 1.22 1.10 1.30 1.53 1.57 1.55 1.30 1.06 1.13 1.20 1.00 0.97 0.90 0.96 1.10 1.03 1.07 1.17 1.29 1.45 1.67 1.96 2.22 2.55
0.71 0.73 0.75 0.73 0.73 0.82 0.90 0.94 0.88 0.91 1.14 1.40 1.55 1.41 1.32 1.34 1.57 1.87 2.02 2.07 1.71 1.34 1.34 1.56 1.20 1.04 0.96 0.97 1.15 1.10 1.07 1.15 1.25 1.37 1.51 1.66 1.88 2.19
0.72 0.84 0.89 0.80 0.85 1.05 1.18 1.14 0.95 0.81 0.89 1.22 1.50 1.55 1.60 1.80 2.05 2.44 2.72 2.81 2.48 1.79 1.52 1.67 1.43 1.21 1.10 1.04 1.11 1.19 1.17 1.16 1.19 1.30 1.46 1.58 1.72 1.96
0.73 0.86 1.13 1.10 1.10 1.19 1.25 1.28 1.22 0.93 0.84 0.90 1.01 1.13 1.17 1.26 1.64 2.01 2.31 2.61 2.57 2.25 1.71 1.68 1.65 1.59 1.65 1.25 1.05 1.00 1.06 1.20 1.25 1.28 1.40 1.54 1.72 1.74
0.86 0.92 1.06 1.16 1.17 1.20 1.27 1.25 1.29 1.24 1.18 1.16 1.09 1.03 1.06 1.18 1.35 1.62 1.89 2.21 2.46 2.29 1.79 1.90 2.05 1.90 1.88 1.54 1.17 1.05 0.97 0.95 1.01 1.16 1.33 1.52 1.69 1.78
0.98 0.89 0.97 1.12 1.18 1.22 1.17 1.19 1.28 1.33 1.26 1.23 1.17 1.08 1.05 1.11 1.17 1.33 1.59 1.76 1.92 1.99 1.80 1.98 2.31 2.11 2.04 1.72 1.32 1.19 1.10 1.03 0.97 1.02 1.13 1.46 1.65 1.78
1.04 1.19 1.16 1.13 1.09 1.03 1.03 1.09 1.11 1.08 1.13 1.12 1.02 0.91 0.86 0.91 1.02 1.19 1.37 1.55 1.69 1.77 1.81 1.83 1.97 2.03 2.17 2.03 1.50 1.25 1.26 1.25 1.14 1.10 1.16 1.27 1.40 1.56
1.05 1.14 1.15 1.04 0.93 0.89 0.92 0.93 0.92 0.99 1.10 1.10 0.98 0.87 0.82 0.89 1.01 1.11 1.29 1.44 1.69 1.72 1.67 1.71 1.84 2.13 2.32 1.99 1.72 1.48 1.29 1.41 1.36 1.27 1.26 1.28 1.32 1.37
1.27 1.25 1.14 1.00 0.91 0.83 0.79 0.76 0.78 0.90 1.02 1.01 1.02 1.01 0.97 0.99 1.02 1.05 1.23 1.39 1.59 1.56 1.55 1.66 1.82 2.03 2.25 2.25 2.14 1.72 1.44 1.38 1.41 1.43 1.41 1.42 1.42 1.41
1.29 1.21 1.02 0.90 0.86 0.81 0.80 0.80 0.78 0.81 0.86 0.93 1.00 1.02 1.04 1.06 1.05 1.05 1.21 1.38 1.45 1.41 1.44 1.56 1.84 2.25 2.52 2.55 2.24 1.90 1.62 1.51 1.56 1.62 1.53 1.49 1.46 1.37
1.06 0.95 0.86 0.84 0.81 0.79 0.80 0.81 0.78 0.74 0.79 0.91 0.99 1.02 1.06 1.10 1.11 1.11 1.16 1.27 1.32 1.33 1.39 1.51 1.80 2.27 2.49 2.33 2.19 1.94 1.76 1.62 1.67 1.84 1.75 1.50 1.40 1.31
0.84 0.85 0.83 0.81 0.79 0.79 0.80 0.81 0.79 0.77 0.81 0.87 0.92 0.95 1.01 1.10 1.12 1.06 1.07 1.19 1.28 1.33 1.40 1.50 1.73 2.05 2.31 2.06 1.96 2.00 1.91 1.82 1.82 1.95 1.86 1.59 1.46 1.50
0.75 0.77 0.77 0.80 0.82 0.80 0.79 0.78 0.81 0.83 0.80 0.83 0.85 0.86 0.91 1.02 1.05 0.97 1.00 1.10 1.30 1.41 1.43 1.42 1.55 1.81 2.10 2.21 2.19 2.05 2.01 2.00 1.92 1.98 1.92 1.83 1.75 1.68
0.74 0.77 0.75 0.76 0.81 0.82 0.81 0.80 0.82 0.81 0.78 0.79 0.80 0.81 0.85 0.96 1.00 0.95 1.01 1.12 1.20 1.27 1.30 1.34 1.47 1.82 2.26 2.41 2.21 1.98 1.98 2.06 2.16 2.08 2.00 1.92 2.00 1.98
0.83 0.81 0.75 0.71 0.73 0.78 0.82 0.81 0.81 0.76 0.73 0.79 0.82 0.82 0.85 0.93 0.93 0.98 1.02 1.07 1.16 1.21 1.27 1.41 1.58 1.84 2.09 2.09 2.07 1.98 1.88 1.88 1.98 2.09 2.30 2.05 1.66 1.48

GEFSNE_prec_meanprecacc_276.txt.gz
Total_Precipitation_Accumulation
0.69 0.68 0.69 0.65 0.63 0.66 0.73 0.90 1.12 0.94 0.48 0.32 0.37 0.39 0.41 0.46 0.54 0.56 0.56 0.68 0.77 0.81 0.84 0.91 1.01 1.13 1.29 1.60 2.17 2.93 3.54 3.93 3.89 3.61 3.39 3.38 3.68 4.08
0.82 0.80 0.77 0.76 0.76 0.76 0.79 0.84 1.01 1.20 0.89 0.40 0.39 0.45 0.51 0.53 0.60 0.59 0.58 0.68 0.74 0.85 0.93 0.94 1.02 1.12 1.23 1.39 1.64 2.17 2.86 3.40 3.77 3.93 3.88 3.82 3.90 4.16
0.87 0.89 0.88 0.88 0.92 0.92 0.93 0.94 0.99 1.18 1.18 0.57 0.38 0.44 0.57 0.62 0.63 0.60 0.60 0.63 0.65 0.75 0.88 0.95 1.02 1.11 1.19 1.30 1.46 1.73 2.26 2.81 3.29 3.79 4.13 4.17 4.10 4.11
0.90 0.95 0.96 0.97 1.00 1.01 1.06 1.06 1.04 1.08 1.19 0.87 0.51 0.49 0.57 0.63 0.68 0.69 0.63 0.63 0.64 0.70 0.82 0.94 1.01 1.08 1.15 1.23 1.35 1.53 1.83 2.34 2.76 3.12 3.61 3.88 3.95 4.12
0.85 0.92 0.96 1.04 1.08 1.06 1.08 1.08 1.04 0.98 1.03 1.02 0.71 0.56 0.60 0.66 0.73 0.77 0.76 0.76 0.72 0.75 0.78 0.88 0.98 1.04 1.12 1.19 1.27 1.36 1.49 1.74 2.18 2.71 3.23 3.64 3.71 3.72
0.82 0.87 0.94 1.06 1.15 1.23 1.30 1.21 1.14 1.19 1.20 1.19 0.98 0.77 0.71 0.72 0.88 0.93 0.91 0.85 0.81 0.74 0.76 0.79 0.90 1.01 1.04 1.07 1.10 1.17 1.29 1.54 1.93 2.43 2.84 3.29 3.55 3.50
0.84 0.84 0.88 1.06 1.28 1.49 1.62 1.56 1.54 1.60 1.55 1.52 1.33 1.08 0.92 0.92 1.00 0.99 1.04 0.93 0.90 0.86 0.82 0.74 0.74 0.76 0.82 0.94 1.02 1.07 1.17 1.32 1.56 1.92 2.39 2.79 3.19 3.46
0.92 0.85 0.82 0.91 1.03 1.23 1.46 1.55 1.65 1.79 1.86 1.82 1.67 1.43 1.11 0.99 1.05 1.22 1.35 1.36 1.20 0.88 0.86 0.84 0.82 0.88 0.84 0.83 0.97 1.04 1.08 1.20 1.40 1.65 1.96 2.29 2.64 3.07
0.82 0.77 0.76 0.76 0.83 0.80 0.95 1.06 1.16 1.36 1.62 1.80 1.88 1.53 1.25 1.13 1.33 1.56 1.60 1.58 1.32 1.07 1.15 1.23 1.02 1.00 0.92 0.98 1.14 1.07 1.11 1.22 1.35 1.50 1.72 2.01 2.26 2.58
0.73 0.74 0.76 0.74 0.74 0.83 0.92 0.95 0.89 0.92 1.16 1.42 1.57 1.43 1.33 1.35 1.58 1.89 2.04 2.09 1.73 1.37 1.37 1.59 1.23 1.07 0.98 1.00 1.18 1.14 1.12 1.20 1.30 1.43 1.56 1.71 1.92 2.23
0.72 0.85 0.90 0.81 0.87 1.08 1.20 1.16 0.96 0.83 0.91 1.24 1.53 1.57 1.62 1.83 2.07 2.45 2.74 2.83 2.50 1.81 1.55 1.70 1.46 1.23 1.12 1.06 1.14 1.23 1.21 1.20 1.25 1.36 1.51 1.63 1.76 1.99
0.74 0.87 1.15 1.12 1.12 1.21 1.27 1.30 1.24 0.94 0.85 0.91 1.02 1.15 1.19 1.28 1.66 2.03 2.33 2.64 2.59 2.28 1.73 1.70 1.68 1.62 1.67 1.27 1.07 1.03 1.09 1.23 1.29 1.32 1.44 1.59 1.76 1.78
0.88 0.93 1.07 1.18 1.19 1.22 1.29 1.27 1.31 1.26 1.20 1.18 1.12 1.06 1.08 1.21 1.37 1.64 1.91 2.23 2.49 2.32 1.81 1.93 2.07 1.92 1.90 1.56 1.19 1.07 0.98 0.97 1.03 1.18 1.36 1.56 1.72 1.82
0.99 0.90 0.98 1.14 1.20 1.23 1.19 1.20 1.30 1.35 1.28 1.25 1.19 1.10 1.06 1.12 1.19 1.34 1.60 1.78 1.95 2.02 1.82 2.00 2.34 2.15 2.07 1.75 1.35 1.21 1.12 1.04 0.99 1.04 1.15 1.49 1.68 1.81
1.05 1.20 1.18 1.15 1.10 1.04 1.04 1.11 1.13 1.09 1.14 1.14 1.03 0.92 0.87 0.92 1.03 1.20 1.39 1.57 1.71 1.78 1.83 1.85 2.00 2.06 2.21 2.07 1.54 1.27 1.28 1.26 1.15 1.12 1.18 1.29 1.42 1.58
1.06 1.15 1.16 1.05 0.94 0.90 0.93 0.94 0.93 1.00 1.11 1.12 0.99 0.88 0.83 0.90 1.02 1.13 1.31 1.46 1.70 1.75 1.69 1.73 1.86 2.15 2.36 2.02 1.76 1.51 1.31 1.43 1.37 1.28 1.27 1.30 1.34 1.39
1.28 1.26 1.14 1.00 0.92 0.84 0.80 0.77 0.79 0.91 1.03 1.02 1.03 1.02 0.98 1.00 1.04 1.07 1.25 1.42 1.61 1.59 1.58 1.68 1.84 2.05 2.27 2.27 2.17 1.75 1.46 1.40 1.43 1.45 1.42 1.44 1.43 1.42
1.30 1.22 1.02 0.91 0.86 0.82 0.81 0.81 0.79 0.82 0.87 0.94 1.01 1.04 1.06 1.08 1.08 1.08 1.24 1.41 1.48 1.43 1.47 1.58 1.87 2.27 2.55 2.58 2.26 1.92 1.64 1.53 1.58 1.64 1.55 1.50 1.47 1.38
1.07 0.96 0.87 0.85 0.82 0.80 0.81 0.82 0.79 0.75 0.81 0.92 1.00 1.04 1.08 1.12 1.13 1.14 1.19 1.29 1.34 1.35 1.41 1.53 1.83 2.31 2.53 2.36 2.21 1.95 1.77 1.64 1.68 1.85 1.76 1.51 1.40 1.31
0.85 0.86 0.84 0.81 0.80 0.80 0.81 0.82 0.80 0.78 0.82 0.89 0.94 0.97 1.03 1.12 1.13 1.08 1.09 1.21 1.30 1.35 1.42 1.52 1.76 2.08 2.35 2.10 1.99 2.02 1.92 1.84 1.84 1.97 1.87 1.60 1.47 1.51
0.77 0.78 0.78 0.81 0.83 0.82 0.80 0.80 0.82 0.84 0.82 0.84 0.87 0.88 0.93 1.04 1.07 0.99 1.02 1.12 1.31 1.43 1.44 1.43 1.57 1.83 2.11 2.23 2.21 2.06 2.02 2.01 1.93 1.99 1.93 1.85 1.76 1.69
0.75 0.79 0.76 0.77 0.82 0.84 0.83 0.81 0.83 0.82 0.79 0.80 0.81 0.82 0.87 0.98 1.02 0.97 1.03 1.13 1.22 1.28 1.32 1.35 1.47 1.83 2.27 2.43 2.22 1.98 1.99 2.07 2.16 2.09 2.01 1.94 2.03 2.00
0.85 0.83 0.77 0.72 0.74 0.79 0.83 0.83 0.82 0.77 0.74 0.80 0.83 0.84 0.87 0.95 0.95 0.99 1.03 1.09 1.18 1.23 1.28 1.42 1.58 1.84 2.10 2.10 2.08 1.99 1.88 1.89 1.98 2.10 2.31 2.06 1.66 1.49